Terminal Aerodrome Forecast
Issued by NWS Wakefield, VA

Home | Current Version | Previous Version | Text Only | Print | Product List | Glossary On
Versions: 1 2 3 4 5 6 7 8 9 10 11 12 13 14 15 16 17 18
000
FTUS41 KAKQ 291738
TAFRIC
TAF
KRIC 291738Z 2918/3018 14008KT P6SM SCT045
     FM292300 14004KT P6SM SKC
     FM300900 18003KT P6SM SCT015
     FM301500 18007KT P6SM SCT040=

USA.gov is the U.S. government's official web portal to all federal, state and local government web resources and services.